Starlink 4059

operational
NORAD ID: 53250 Int'l Des: 2022-086 Owner: SPXS Country: US Constellation: starlink
LEOCIRCULAR

About Starlink 4059

Description loading...

Live Position

Loading 3D Globe...

Upcoming Passes

Altitude History

Altitude vs Time

uPlot chart will show altitude changes over time

Two-Line Element Set

1 53250U 22086J 25303.75027752 .00000742 00000-0 64701-4 0 9996
2 53250 53.2164 57.4412 0001338 94.6127 265.5018 15.08843329181465
Epoch: Oct 30, 2025 • Age: 7 hours

Current Status

Altitude 543.0 km
Velocity 7.60 km/s
Sub-Earth Point 42.27°N, 140.41°E
Launch Date Jul 24, 2022
Age 3.2 years
Type internet

Technical Details

Classification Payload
Mass 297.00 kg
Dry Mass 275.00 kg
Total Mass 297.00 kg
Length 0.20 m
Diameter 2.80 m
Span 9.00 m
Shape Box + pan
Manufacturer SPXS
Bus Type Starlink
Phase Status In Orbit
Owner/State SPXS/US

Large Constellations

Loading constellations...